Roatan, Honduras

3:28 AM CST on February 08, 2016 (GMT -0600)
Roatan International

Weather History for MHRO - March, 2013

Change the Weather History Date:

Wednesday, March 6, 2013

  Actual Average Record
Temperature  
Mean Temperature 76 °F -  
Max Temperature 82 °F 83 °F 89 °F (1998)
Min Temperature 69 °F 74 °F 69 °F (2001)
Cooling Degree Days 10    
Growing Degree Days 26 (Base 50)    
Moisture  
Dew Point 67 °F    
Average Humidity 68    
Maximum Humidity 88    
Minimum Humidity 52    
Precipitation  
Precipitation 0.00 in - - ()
Sea Level Pressure  
Sea Level Pressure 30.09 in    
Wind  
Wind Speed 5 mph ()    
Max Wind Speed 14 mph    
Max Gust Speed -    
Visibility 6.7 miles    
Events      
Averages and records for this station are not official NWS values.
T = Trace of Precipitation, MM = Missing Value Source: Averaged Metar Reports

Daily Weather History Graph

Daily Weather History Graph

Search for Another Location

Airport or City:

Trip Planner

Search our weather history database for the weather conditions in past years. The results will help you decide how hot, cold, wet, or windy it might be!

Date:

Astronomy

Mar. 06, 2013 Rise Set
Actual Time 6:00 AM CST 5:54 PM CST
Civil Twilight 5:38 AM CST 6:16 PM CST
Nautical Twilight 5:13 AM CST 6:41 PM CST
Astronomical Twilight 4:48 AM CST 7:06 PM CST
Moon 1:32 AM CST (3/6) 1:11 PM CST (3/6)
Length of Visible Light 12h 37m
Length of Day
11h 54m
Waning Crescent, 29% of the Moon is Illuminated
Mar 6
Waning Crescent
Mar 11
New
Mar 19
First Quarter
Mar 27
Full
Apr 2
Last Quarter

Hourly Weather History & Observations

Time (CST) Temp. Heat Index Dew Point Humidity Pressure Visibility Wind Dir Wind Speed Gust Speed Precip Events Conditions
6:00 AM 71 °F - 67 °F 84% 30.07 in 6 mi Calm Calm - -   Mostly Cloudy
7:00 AM 73.4 °F - 69.8 °F 88% 30.06 in 6.2 mi North 4.6 mph - N/A   Mostly Cloudy
8:00 AM 75.2 °F - 69.8 °F 83% 30.09 in 6.2 mi Calm Calm - N/A   Mostly Cloudy
9:00 AM 77 °F - 70 °F 73% 30.12 in 9 mi Calm Calm - -   Haze
9:00 AM 77.0 °F - 69.8 °F 78% 30.12 in 6.2 mi Calm Calm - N/A   Mostly Cloudy
10:00 AM 80.6 °F 83.9 °F 69.8 °F 70% 30.12 in 6.2 mi NE 10.4 mph - N/A   Mostly Cloudy
11:00 AM 77.0 °F - 69.8 °F 78% 30.12 in 6.2 mi NE 8.1 mph - N/A   Mostly Cloudy
12:00 PM 80 °F - 68 °F 58% 30.11 in 7 mi NE 8.1 mph - -   Haze
12:00 PM 78.8 °F - 68.0 °F 69% 30.09 in 6.2 mi NE 8.1 mph - N/A   Mostly Cloudy
1:00 PM 80.6 °F 82.7 °F 66.2 °F 61% 30.09 in 6.2 mi NE 13.8 mph - N/A   Scattered Clouds
2:00 PM 80.6 °F 82.7 °F 66.2 °F 61% 30.06 in 6.2 mi North 11.5 mph - N/A   Mostly Cloudy
3:00 PM 80 °F - 65 °F 52% 30.07 in 9 mi North 11.5 mph - -   Haze
3:00 PM 80.6 °F 82.7 °F 66.2 °F 61% 30.06 in 6.2 mi North 11.5 mph - N/A   Scattered Clouds
4:00 PM 80.6 °F 82.7 °F 66.2 °F 61% 30.06 in 6.2 mi North 13.8 mph - N/A   Scattered Clouds
5:00 PM 80.6 °F 82.7 °F 66.2 °F 61% 30.06 in 6.2 mi NE 10.4 mph - N/A   Scattered Clouds
6:00 PM 77 °F - 64 °F 56% 30.10 in 9 mi NNE 10.4 mph - -   Haze
6:00 PM 77.0 °F - 64.4 °F 65% 30.09 in 6.2 mi NNE 10.4 mph - N/A   Scattered Clouds
7:00 PM 75.2 °F - 64.4 °F 69% 30.09 in 6.2 mi NNE 8.1 mph - N/A   Partly Cloudy
8:00 PM 75.2 °F - 64.4 °F 69% 30.12 in 6.2 mi NE 6.9 mph - N/A   Partly Cloudy